Location: Fours
(44.3167°N, 6.7000°E)
Time: 05:26:41
(UTC+00:00)

Cosmos 2218 Rocket - Pass Details

Date: 03 June 2022
Orbit: 956 x 1005 km, 82.9° (Epoch: 03 July)

Event Time Altitude Azimuth Distance (km) Brightness Sun altitude
Rises 01:46:52 0° 352° (N) 3,687 7.8 -16.5°
Reaches altitude 10° 01:49:23 10° 354° (N) 2,742 7.1 -16.3°
Maximum altitude 01:55:42 82° 82° (E) 1,005 4.1 -15.7°
Drops below altitude 10° 02:02:02 10° 170° (S) 2,756 6.0 -15.0°
Enters shadow 02:02:24 - 170° (S) 2,891 6.1 -15.0°
